Regional Weather Roundup
Issued by NWS

Home | Current Version | Previous Version | Text Only | Print | Product List | Glossary On
Versions: 1 2 3 4 5 6 7 8 9 10 11 12 13 14 15 16 17 18 19 20 21 22 23 24 25 26 27 28
000
ASUS45 KSLC 260910
RWRUT

UTAH REGIONAL WEATHER ROUNDUP
NATIONAL WEATHER SERVICE SALT LAKE CITY UT
300 AM MDT MON JUN 26 2017

UTZ001>011-023>025-261000-

NORTHERN UTAH

CITY           SKY/WX    TMP DP  RH WIND       PRES   REMARKS
BRIGHAM CITY   CLEAR     66  44  45 W5        30.10F
HILL AFB       CLEAR     66  41  40 E17       30.13F
LOGAN          CLEAR     57  48  72 CALM      30.14F
OGDEN          CLEAR     67  42  40 S6        30.10F
SALT LAKE CITY NOT AVBL
TOOELE VALLEY  CLEAR     59  37  44 S8        30.10S
WENDOVER         N/A     69  35  28 W6        30.09F
HEBER CITY     CLEAR     48  41  76 CALM      30.24S
WEST JORDAN    CLEAR     67  48  51 CALM      30.13S

$$

UTZ011>015-024>027-261000-

CENTRAL/NORTHEAST UTAH

CITY           SKY/WX    TMP DP  RH WIND       PRES   REMARKS
PROVO AIRPORT  CLEAR     64  45  49 CALM      30.13F
MOAB/CANYONLAN CLEAR     79  24  13 VRB3      30.07R
DELTA          CLEAR     63  32  31 E6        30.11F
PRICE          CLEAR     67  26  21 N9        30.21F
VERNAL         CLEAR     61  33  35 W5        30.21S

$$

UTZ013>016-019>022-027-261000-

SOUTHERN UTAH

CITY           SKY/WX    TMP DP  RH WIND       PRES   REMARKS
BRYCE CANYON   CLEAR     50  30  46 W10       30.37F
CEDAR CITY     CLEAR     66  27  23 CALM      30.17F
MILFORD        CLEAR     60  24  25 SW3       30.13F
ST GEORGE      SUNNY     81  33  17 S3        29.95R
HANKSVILLE     CLEAR     66  16  14 CALM      30.11R
BLANDING       CLEAR     60  26  26 N6        30.26S

$$

REGIONAL REPORTS     COLORADO/ARIZONA

CITY           SKY/WX    TMP DP  RH WIND       PRES   REMARKS
CRAIG, CO      CLOUDY    43  34  70 CALM      30.31F
GRAND JUNCTION CLEAR     74  30  19 CALM      30.14R
RIFLE, CO      CLEAR     58  29  33 S5        30.24S
MONTROSE, CO   CLEAR     61  29  29 SE9       30.25R
CORTEZ, CO     CLEAR     50  33  52 SE5       30.23R
COLORADO CITY    N/A     63  34  34 SE7       30.15S
PAGE, AZ       NOT AVBL
GRAND CANYON   PTCLDY    49  36  61 CALM      30.31S
KINGMAN, AZ    CLEAR     79  32  18 S12       30.02S
FLAGSTAFF, AZ  PTCLDY    52  44  74 CALM      30.35R

$$

REGIONAL REPORTS    NEVADA/IDAHO/WYOMING

CITY           SKY/WX    TMP DP  RH WIND       PRES   REMARKS
LAS VEGAS, NV  CLEAR     96  22   7 SW13G18   29.87R HX  90
ELY, NY        PTCLDY    53  28  38 S14       30.23F
ELKO, NV       CLEAR     64  31  28 NE6       30.12S
POCATELLO, ID  CLEAR     53  44  71 CALM      30.13F
BURLEY, ID     CLEAR     57  52  83 CALM      30.07S
FORT BRIDGER,    N/A     57  31  37 W7        30.37S
EVANSTON, WY   CLOUDY    61  32  33 S3        30.34F
ROCK SPRINGS,  CLOUDY    54  26  34 E10       30.34S
KEMMERER, WY     N/A     55  34  44 N14G23    30.36F

$$




USA.gov is the U.S. government's official web portal to all federal, state and local government web resources and services.